Location: *
(45.8589°N, 4.7139°E)
Time: 03:48:21
(UTC+00:00)

Cosmos 1408 - Pass Details

Date: 09 April 2020
Orbit: 470 x 494 km, 82.6° (Epoch: 02 June)

Event Time Altitude Azimuth Distance (km) Brightness Sun altitude
Rises 20:42:00 0° 354° (N) 2,565 6.9 -22.8°
Reaches altitude 10° 20:44:08 10° 359° (N) 1,683 5.8 -23.0°
Enters shadow 20:46:40 39° 20° (NNE) 752 3.6 -23.4°
